Date,TemperatureHighF,TemperatureAvgF,TemperatureLowF,DewpointHighF,DewpointAvgF,DewpointLowF,HumidityHigh,HumidityAvg,HumidityLow,PressureMaxIn,PressureMinIn,WindSpeedMaxMPH,WindSpeedAvgMPH,GustSpeedMaxMPH,PrecipitationSumIn
2013-3-1,86.3,68.2,50.0,36.0,29.5,24.0,40,25,15,30.19,30.01,10,1,0,0.00
2013-3-2,85.6,65.4,47.9,45.0,34.8,29.0,66,35,16,30.08,29.93,4,0,0,0.00
2013-3-3,72.5,59.1,48.6,50.0,44.2,36.0,85,60,35,29.98,29.82,6,0,0,0.00
2013-3-4,70.5,54.9,43.2,51.0,45.7,40.0,92,73,44,29.96,29.87,6,0,0,0.00
2013-3-5,65.5,53.2,43.6,51.0,46.3,40.0,91,78,58,30.00,29.88,5,0,0,0.00
2013-3-6,56.7,51.4,43.6,48.0,44.7,40.0,87,78,61,30.02,29.88,1,0,0,0.00
2013-3-7,61.0,52.9,46.2,47.0,43.9,38.0,92,74,45,29.88,29.71,3,0,0,0.22
2013-3-8,56.2,49.0,43.2,46.0,43.9,41.0,95,83,64,29.89,29.64,2,0,0,0.02
2013-3-9,67.2,53.8,41.8,46.0,42.0,35.0,92,67,43,30.09,29.89,2,0,0,0.02
2013-3-10,79.7,59.9,42.8,42.0,34.7,29.0,75,45,16,30.15,30.01,3,0,0,0.00
2013-3-11,78.4,60.8,46.0,45.0,37.6,31.0,62,45,24,30.05,29.91,3,0,0,0.00
2013-3-12,84.7,63.0,45.0,50.0,41.4,36.0,75,49,22,29.96,29.87,5,0,0,0.00
2013-3-13,94.6,67.6,50.3,53.0,42.6,35.0,69,45,16,29.97,29.87,2,0,0,0.00
2013-3-14,86.1,66.0,50.0,54.0,46.0,38.0,72,51,28,29.94,29.86,4,0,0,0.00
2013-3-15,81.8,62.7,50.1,57.0,48.9,43.0,81,63,39,29.88,29.79,5,0,0,0.00
2013-3-16,71.9,56.7,46.5,55.0,49.2,44.0,94,78,55,29.85,29.73,2,0,0,0.00
2013-3-17,75.8,57.0,44.9,54.0,48.0,43.0,95,75,38,29.87,29.77,4,0,0,0.00
2013-3-18,65.6,53.4,46.0,52.0,47.6,43.0,93,81,62,29.96,29.84,4,0,0,0.00
2013-3-19,74.1,57.5,45.4,54.0,48.4,43.0,93,74,46,29.99,29.89,4,0,0,0.00
2013-3-20,72.6,59.9,50.7,55.0,50.2,47.0,89,72,50,29.95,29.81,4,0,0,0.00
2013-3-21,77.0,61.3,48.3,52.0,47.9,30.0,87,65,32,29.82,29.66,4,0,0,0.00
2013-3-22,78.7,62.1,46.7,45.0,35.9,28.0,70,41,21,29.77,29.65,4,0,0,0.00
2013-3-23,77.2,59.0,44.3,51.0,35.4,18.0,76,44,22,29.87,29.76,5,0,0,0.00
2013-3-24,81.6,59.1,41.2,48.0,38.0,29.0,75,49,21,29.89,29.75,4,0,0,0.00
2013-3-25,77.3,60.2,46.3,50.0,40.7,33.0,67,51,29,29.83,29.75,5,0,0,0.00
2013-3-26,73.3,57.6,44.1,53.0,44.2,37.0,81,63,43,29.82,29.76,5,0,0,0.00
2013-3-27,71.2,56.5,45.2,53.0,47.4,42.0,90,73,51,29.91,29.79,7,0,0,0.00
2013-3-28,75.1,57.4,45.2,55.0,48.5,42.0,92,74,47,29.95,29.87,5,0,0,0.00
2013-3-29,79.7,60.7,47.1,56.0,49.6,43.0,89,70,42,29.97,29.88,2,0,0,0.00
2013-3-30,75.5,58.6,52.8,52.0,48.8,41.0,91,73,37,29.98,29.90,6,0,0,0.00
2013-3-31,65.9,57.8,53.8,58.0,52.7,48.0,92,83,67,29.98,29.91,4,0,0,0.34